sat.trackr.live / text

‹ back to catalog

STARLINK-11443 [DTC]

NORAD 62512 · 2025-004B

PAYLOAD ACTIVE UNKNOWN

§ Identity

Operator
Country
US
Launch date
2025-01-08
Launch site
AFETR
Launch vehicle
Mass (kg)
RCS (m²)

Purposes: comms

External: N2YO · Heavens-Above · Gunter

§ Orbital elements

Epoch: 2026-05-24T22:11:40.746624Z

Period
91.67 min
Inclination
43.0007°
Eccentricity
0.0004183
Mean motion
15.70933604 rev/d
Perigee alt
353.4 km
Apogee alt
359.0 km
Semi-major
6,734.4 km
B*
1.3494e-3
RAAN
331.6318°
Arg perigee
263.2842°
Mean anomaly
96.7550°
Rev number
7,919

§ Raw data

STARLINK-11443 [DTC]1 62512U 25004B   26144.92477716  .00177181  00000+0  13494-2 0  99942 62512  43.0007 331.6318 0004183 263.2842  96.7550 15.70933604 79196

JSON: /api/v1/satellites/62512 · /tle

For live sub-satellite position, see the globe view (requires WebGL).

§ Visibility from observer

Set your observer location to see the next 7 days of passes ≥ 10°. The values pass through the URL so the page stays shareable.

No JS? Fill the form by hand. The geolocation button needs JavaScript.